Regional Weather Roundup
Issued by NWS Green Bay, WI

Home | Current Version | Previous Version | Text Only | Print | Product List | Glossary On
Versions: 1 2 3 4 5 6 7 8 9 10 11 12 13 14 15 16 17 18 19 20 21 22 23 24 25 26 27 28 29 30 31 32 33 34 35 36 37 38 39 40 41 42 43 44 45 46 47 48 49 50
000
ASUS43 KGRB 151500
RWRGRB

NORTH-CENTRAL AND NORTHEAST WISCONSIN REGIONAL WEATHER ROUNDUP
NATIONAL WEATHER SERVICE GREEN BAY WI
900 AM CST FRI DEC 15 2017

WIZ005-009-010>012-018-019-151600-
NORTH CENTRAL WISCONSIN

CITY           SKY/WX    TMP DP  RH WIND       PRES   REMARKS
IRONWOOD       LGT SNOW  13  10  88 W13       29.79S FOG     WCI  -2
MANITOWISH WTR NOT AVBL
ARBOR VITAE    NOT AVBL
EAGLE RIVER    NOT AVBL
LAND O LAKES   NOT AVBL
RHINELANDER    CLOUDY    12   8  84 W10       29.77S WCI  -1
PHILLIPS       NOT AVBL
ANTIGO         NOT AVBL
TOMAHAWK       NOT AVBL
MERRILL        NOT AVBL
$$

WIZ013-073-151600-
NORTHEAST WISCONSIN

CITY           SKY/WX    TMP DP  RH WIND       PRES   REMARKS
IRON MOUNTAIN  CLOUDY   N/A N/A N/A MISG      29.74S
MARINETTE      CLOUDY    15   9  76 VRB7      29.81R WCI   5
$$

WIZ017-030-035>037-045-151600-
CENTRAL WISCONSIN

CITY           SKY/WX    TMP DP  RH WIND       PRES   REMARKS
MEDFORD        NOT AVBL
WAUSAU         LGT SNOW  15  11  83 NW9       29.81R FOG     WCI   3
MOSINEE        CLOUDY    16  10  79 W8G16     29.83R WCI   5
MARSHFIELD     CLOUDY    15   9  76 NW12      29.83R WCI   2
WISC RAPIDS    CLOUDY    19  10  68 W8        29.87R WCI   9
STEVENS POINT  NOT AVBL
WAUPACA        NOT AVBL
SHAWANO        NOT AVBL
CLINTONVILLE   NOT AVBL
WAUTOMA        CLOUDY    21  13  71 W15       29.87R WCI   8
$$

WIZ038-039-048-051-151600-
FOX VALLEY

CITY           SKY/WX    TMP DP  RH WIND       PRES   REMARKS
NWS GREEN BAY  CLOUDY    20  10  65 NW13      29.83S WCI   7
APPLETON       CLOUDY    19  12  73 W13       29.81S WCI   7
OSHKOSH        CLOUDY    21  15  78 W12       29.84R WCI   9
FOND DU LAC    CLOUDY    22  14  71 W15       29.85R WCI   9
$$

WIZ022-050-052-151600-
EAST CENTRAL WISCONSIN

CITY           SKY/WX    TMP DP  RH WIND       PRES   REMARKS
EPHRAIM        NOT AVBL
WASHINGTON ISL NOT AVBL
STURGEON BAY   CLOUDY    18  11  74 W16G23    29.80R WCI   3
MANITOWOC      FLURRIES  21  14  74 NW14      29.84R WCI   8
SHEBOYGAN      FLURRIES  22  17  81 W15       29.83S WCI   9
$$

LMZ563-521-522-541>543-151600-
LAKESHORE

STATION/POSITION TIME  TEMP    WIND        PRES    VSBY  WAVE
                       AIR SEA DIR/SP/G                  HT/PER
                 (UTC) (F)     (DEG/KT/KT) (MB)    (MI)  (FT/S)
SHEBOYGAN LKSHOR 1400   22     290/ 13/ 15 1011.3F
KEWAUNEE LKSHORE 1430   19     280/  8/ 12 1008.9S
NORTHPORT PIER   1440   20     290/  8/ 16 1008.1R
MENOMINEE LKSHOR 1430   16     260/ 11/ 17 1008.8R
$$



USA.gov is the U.S. government's official web portal to all federal, state and local government web resources and services.